{"data":{"norad_id":68207,"intl_designator":"2026-053A","name":"STARLINK-36986","alt_names":[],"object_type":"PAYLOAD","status":"ACTIVE","operator":null,"country":"US","launch_date":"2026-03-17","launch_site_code":"AFWTR","launch_vehicle":null,"mission":null,"orbit_class":"UNKNOWN","rcs_meters":null,"size_class":null,"mass_kg":null,"dimensions":null,"purposes":["comms"],"wikipedia_slug":null,"has_3d_model":false,"image_url":null,"decayed_at":null,"tle_current":{"epoch":"2026-09-18T09:10:31.520064Z","epoch_age_seconds":234377,"freshness":"STALE","line1":"1 68207U 26053A   26261.38230926  .00012477  00000+0  38814-3 0  9996","line2":"2 68207  97.2802 135.1094 0003459  85.2810 274.8827 15.33441851 29746","mean_motion":15.33441851,"eccentricity":0.0003459,"inclination_deg":97.2802,"raan_deg":135.1094,"arg_perigee_deg":85.281,"mean_anomaly_deg":274.8827,"bstar":0.00038814,"rev_number":2974,"period_min":93.906397497951,"perigee_km":463.18531148949,"apogee_km":467.91977591582,"semimajor_km":6843.6895437027,"source":"CELESTRAK","updated_at":"2026-09-20T09:00:43.832151Z"}}}